owner,sensor,date,latitude,longitude,vertical_datum,sea_water_practical_salinity,qcFlag 
NERRS,ioos:station:NOAA.NERRS:rkblhwq:1,2014-02-01T00:45:00Z,26.0257,-81.7332,1.01,31.5,1111122 
NERRS,ioos:station:NOAA.NERRS:rkblhwq:1,2014-02-01T01:45:00Z,26.0257,-81.7332,1.02,31.9,1111122 
NERRS,ioos:station:NOAA.NERRS:rkblhwq:1,2014-02-01T02:45:00Z,26.0257,-81.7332,1.14,32.1,1111122 
NERRS,ioos:station:NOAA.NERRS:rkblhwq:1,2014-02-01T03:45:00Z,26.0257,-81.7332,1.32,32.6,1111122 
NERRS,ioos:station:NOAA.NERRS:rkblhwq:1,2014-02-01T04:45:00Z,26.0257,-81.7332,1.5,32.8,1111122 
NERRS,ioos:station:NOAA.NERRS:rkblhwq:1,2014-02-01T05:45:00Z,26.0257,-81.7332,1.67,32.7,1111122 
NERRS,ioos:station:NOAA.NERRS:rkblhwq:1,2014-02-01T06:45:00Z,26.0257,-81.7332,1.76,33.0,1111122 
NERRS,ioos:station:NOAA.NERRS:rkblhwq:1,2014-02-01T07:45:00Z,26.0257,-81.7332,1.75,33.0,1111122 
NERRS,ioos:station:NOAA.NERRS:rkblhwq:1,2014-02-01T08:45:00Z,26.0257,-81.7332,1.64,32.8,1111122 
NERRS,ioos:station:NOAA.NERRS:rkblhwq:1,2014-02-01T09:45:00Z,26.0257,-81.7332,1.49,32.7,1111122 
NERRS,ioos:station:NOAA.NERRS:rkblhwq:1,2014-02-01T10:45:00Z,26.0257,-81.7332,1.31,31.8,1111122 
NERRS,ioos:station:NOAA.NERRS:rkblhwq:1,2014-02-01T11:45:00Z,26.0257,-81.7332,1.13,31.8,1111122 
NERRS,ioos:station:NOAA.NERRS:rkblhwq:1,2014-02-01T12:45:00Z,26.0257,-81.7332,0.97,31.6,1111122 
NERRS,ioos:station:NOAA.NERRS:rkblhwq:1,2014-02-01T13:45:00Z,26.0257,-81.7332,0.84,31.3,1111122 
NERRS,ioos:station:NOAA.NERRS:rkblhwq:1,2014-02-01T14:45:00Z,26.0257,-81.7332,0.8,31.5,1111122 
NERRS,ioos:station:NOAA.NERRS:rkblhwq:1,2014-02-01T15:45:00Z,26.0257,-81.7332,0.92,31.6,1111122 
NERRS,ioos:station:NOAA.NERRS:rkblhwq:1,2014-02-01T16:45:00Z,26.0257,-81.7332,1.07,32.1,1111122 
NERRS,ioos:station:NOAA.NERRS:rkblhwq:1,2014-02-01T17:45:00Z,26.0257,-81.7332,1.25,32.3,1111122 
NERRS,ioos:station:NOAA.NERRS:rkblhwq:1,2014-02-01T18:45:00Z,26.0257,-81.7332,1.41,32.4,1111122 
NERRS,ioos:station:NOAA.NERRS:rkblhwq:1,2014-02-01T19:45:00Z,26.0257,-81.7332,1.53,32.7,1111122 
NERRS,ioos:station:NOAA.NERRS:rkblhwq:1,2014-02-01T20:45:00Z,26.0257,-81.7332,1.54,32.7,1111122 
NERRS,ioos:station:NOAA.NERRS:rkblhwq:1,2014-02-01T21:45:00Z,26.0257,-81.7332,1.43,32.9,1111122 
NERRS,ioos:station:NOAA.NERRS:rkblhwq:1,2014-02-01T22:45:00Z,26.0257,-81.7332,1.3,32.6,1111122 
NERRS,ioos:station:NOAA.NERRS:rkblhwq:1,2014-02-01T23:45:00Z,26.0257,-81.7332,1.16,32.3,1111122 
NERRS,ioos:station:NOAA.NERRS:rkblhwq:1,2014-02-02T00:45:00Z,26.0257,-81.7332,1.03,31.9,1111122 
NERRS,ioos:station:NOAA.NERRS:rkblhwq:1,2014-02-02T01:45:00Z,26.0257,-81.7332,0.94,31.9,1111122 
NERRS,ioos:station:NOAA.NERRS:rkblhwq:1,2014-02-02T02:45:00Z,26.0257,-81.7332,0.95,31.7,1111122 
NERRS,ioos:station:NOAA.NERRS:rkblhwq:1,2014-02-02T03:45:00Z,26.0257,-81.7332,1.08,32.1,1111122 
NERRS,ioos:station:NOAA.NERRS:rkblhwq:1,2014-02-02T04:45:00Z,26.0257,-81.7332,1.26,32.6,1111122 
NERRS,ioos:station:NOAA.NERRS:rkblhwq:1,2014-02-02T05:45:00Z,26.0257,-81.7332,1.45,32.6,1111122 
NERRS,ioos:station:NOAA.NERRS:rkblhwq:1,2014-02-02T06:45:00Z,26.0257,-81.7332,1.61,32.8,1111122 
NERRS,ioos:station:NOAA.NERRS:rkblhwq:1,2014-02-02T07:45:00Z,26.0257,-81.7332,1.7,33.0,1111122 
NERRS,ioos:station:NOAA.NERRS:rkblhwq:1,2014-02-02T08:45:00Z,26.0257,-81.7332,1.69,32.9,1111122 
NERRS,ioos:station:NOAA.NERRS:rkblhwq:1,2014-02-02T09:45:00Z,26.0257,-81.7332,1.56,32.6,1111122 
NERRS,ioos:station:NOAA.NERRS:rkblhwq:1,2014-02-02T10:45:00Z,26.0257,-81.7332,1.4,32.2,1111122 
NERRS,ioos:station:NOAA.NERRS:rkblhwq:1,2014-02-02T11:45:00Z,26.0257,-81.7332,1.24,32.0,1111122 
NERRS,ioos:station:NOAA.NERRS:rkblhwq:1,2014-02-02T12:45:00Z,26.0257,-81.7332,1.08,32.1,1111122 
NERRS,ioos:station:NOAA.NERRS:rkblhwq:1,2014-02-02T13:45:00Z,26.0257,-81.7332,0.94,32.0,1111122 
NERRS,ioos:station:NOAA.NERRS:rkblhwq:1,2014-02-02T14:45:00Z,26.0257,-81.7332,0.84,31.9,1111122 
NERRS,ioos:station:NOAA.NERRS:rkblhwq:1,2014-02-02T15:45:00Z,26.0257,-81.7332,0.88,31.5,1111122 
NERRS,ioos:station:NOAA.NERRS:rkblhwq:1,2014-02-02T16:45:00Z,26.0257,-81.7332,1.01,31.9,1111122 
NERRS,ioos:station:NOAA.NERRS:rkblhwq:1,2014-02-02T17:45:00Z,26.0257,-81.7332,1.17,32.5,1111122 
NERRS,ioos:station:NOAA.NERRS:rkblhwq:1,2014-02-02T18:45:00Z,26.0257,-81.7332,1.35,32.9,1111122 
NERRS,ioos:station:NOAA.NERRS:rkblhwq:1,2014-02-02T19:45:00Z,26.0257,-81.7332,1.5,32.9,1111122 
NERRS,ioos:station:NOAA.NERRS:rkblhwq:1,2014-02-02T20:45:00Z,26.0257,-81.7332,1.59,32.9,1111122 
NERRS,ioos:station:NOAA.NERRS:rkblhwq:1,2014-02-02T21:45:00Z,26.0257,-81.7332,1.54,32.9,1111122 
NERRS,ioos:station:NOAA.NERRS:rkblhwq:1,2014-02-02T22:45:00Z,26.0257,-81.7332,1.42,32.9,1111122 
NERRS,ioos:station:NOAA.NERRS:rkblhwq:1,2014-02-02T23:45:00Z,26.0257,-81.7332,1.28,32.7,1111122 
NERRS,ioos:station:NOAA.NERRS:rkblhwq:1,2014-02-03T00:45:00Z,26.0257,-81.7332,1.14,32.4,1111122 
NERRS,ioos:station:NOAA.NERRS:rkblhwq:1,2014-02-03T01:45:00Z,26.0257,-81.7332,1.01,32.1,1111122 
NERRS,ioos:station:NOAA.NERRS:rkblhwq:1,2014-02-03T02:45:00Z,26.0257,-81.7332,0.91,31.9,1111122 
NERRS,ioos:station:NOAA.NERRS:rkblhwq:1,2014-02-03T03:45:00Z,26.0257,-81.7332,0.94,31.9,1111122 
NERRS,ioos:station:NOAA.NERRS:rkblhwq:1,2014-02-03T04:45:00Z,26.0257,-81.7332,1.08,32.4,1111122 
NERRS,ioos:station:NOAA.NERRS:rkblhwq:1,2014-02-03T05:45:00Z,26.0257,-81.7332,1.25,32.7,1111122 
NERRS,ioos:station:NOAA.NERRS:rkblhwq:1,2014-02-03T06:45:00Z,26.0257,-81.7332,1.42,32.9,1111122 
NERRS,ioos:station:NOAA.NERRS:rkblhwq:1,2014-02-03T07:45:00Z,26.0257,-81.7332,1.56,33.0,1111122 
NERRS,ioos:station:NOAA.NERRS:rkblhwq:1,2014-02-03T08:45:00Z,26.0257,-81.7332,1.64,33.1,1111122 
NERRS,ioos:station:NOAA.NERRS:rkblhwq:1,2014-02-03T09:45:00Z,26.0257,-81.7332,1.59,32.9,1111122 
NERRS,ioos:station:NOAA.NERRS:rkblhwq:1,2014-02-03T10:45:00Z,26.0257,-81.7332,1.46,32.8,1111122 
NERRS,ioos:station:NOAA.NERRS:rkblhwq:1,2014-02-03T11:45:00Z,26.0257,-81.7332,1.33,32.3,1111122 
NERRS,ioos:station:NOAA.NERRS:rkblhwq:1,2014-02-03T12:45:00Z,26.0257,-81.7332,1.18,32.4,1111122 
NERRS,ioos:station:NOAA.NERRS:rkblhwq:1,2014-02-03T13:45:00Z,26.0257,-81.7332,1.05,32.4,1111122 
NERRS,ioos:station:NOAA.NERRS:rkblhwq:1,2014-02-03T14:45:00Z,26.0257,-81.7332,0.93,32.2,1111122 
NERRS,ioos:station:NOAA.NERRS:rkblhwq:1,2014-02-03T15:45:00Z,26.0257,-81.7332,0.88,32.2,1111122 
NERRS,ioos:station:NOAA.NERRS:rkblhwq:1,2014-02-03T16:45:00Z,26.0257,-81.7332,0.98,32.0,1111122 
NERRS,ioos:station:NOAA.NERRS:rkblhwq:1,2014-02-03T17:45:00Z,26.0257,-81.7332,1.13,32.6,1111122 
NERRS,ioos:station:NOAA.NERRS:rkblhwq:1,2014-02-03T18:45:00Z,26.0257,-81.7332,1.29,32.8,1111122 
NERRS,ioos:station:NOAA.NERRS:rkblhwq:1,2014-02-03T19:45:00Z,26.0257,-81.7332,1.43,32.9,1111122 
NERRS,ioos:station:NOAA.NERRS:rkblhwq:1,2014-02-03T21:45:00Z,26.0257,-81.7332,1.56,32.9,1111122 
NERRS,ioos:station:NOAA.NERRS:rkblhwq:1,2014-02-03T22:45:00Z,26.0257,-81.7332,1.46,33.0,1111122 
NERRS,ioos:station:NOAA.NERRS:rkblhwq:1,2014-02-03T23:45:00Z,26.0257,-81.7332,1.33,32.8,1111122 
NERRS,ioos:station:NOAA.NERRS:rkblhwq:1,2014-02-04T00:45:00Z,26.0257,-81.7332,1.19,32.5,1111122 
NERRS,ioos:station:NOAA.NERRS:rkblhwq:1,2014-02-04T01:45:00Z,26.0257,-81.7332,1.06,32.3,1111122 
NERRS,ioos:station:NOAA.NERRS:rkblhwq:1,2014-02-04T02:45:00Z,26.0257,-81.7332,0.94,32.1,1111122 
NERRS,ioos:station:NOAA.NERRS:rkblhwq:1,2014-02-04T03:45:00Z,26.0257,-81.7332,0.86,32.3,1111122 
NERRS,ioos:station:NOAA.NERRS:rkblhwq:1,2014-02-04T05:45:00Z,26.0257,-81.7332,1.03,32.3,1111122 
NERRS,ioos:station:NOAA.NERRS:rkblhwq:1,2014-02-04T06:45:00Z,26.0257,-81.7332,1.17,32.5,1111122 
NERRS,ioos:station:NOAA.NERRS:rkblhwq:1,2014-02-14T14:45:00Z,26.0257,-81.7332,0.98,52.5,1111122 
NERRS,ioos:station:NOAA.NERRS:rkblhwq:1,2014-02-14T15:45:00Z,26.0257,-81.7332,1.13,53.3,1111122 
NERRS,ioos:station:NOAA.NERRS:rkblhwq:1,2014-02-14T16:45:00Z,26.0257,-81.7332,1.29,53.6,1111122 
NERRS,ioos:station:NOAA.NERRS:rkblhwq:1,2014-02-14T17:45:00Z,26.0257,-81.7332,1.44,53.7,1111122 
NERRS,ioos:station:NOAA.NERRS:rkblhwq:1,2014-02-14T18:45:00Z,26.0257,-81.7332,1.53,54.1,1111122 
NERRS,ioos:station:NOAA.NERRS:rkblhwq:1,2014-02-14T19:45:00Z,26.0257,-81.7332,1.47,53.7,1111122 
NERRS,ioos:station:NOAA.NERRS:rkblhwq:1,2014-02-14T20:45:00Z,26.0257,-81.7332,1.35,53.8,1111122 
NERRS,ioos:station:NOAA.NERRS:rkblhwq:1,2014-02-14T21:45:00Z,26.0257,-81.7332,1.24,53.8,1111122 
NERRS,ioos:station:NOAA.NERRS:rkblhwq:1,2014-02-14T22:45:00Z,26.0257,-81.7332,1.14,53.6,1111122 
NERRS,ioos:station:NOAA.NERRS:rkblhwq:1,2014-02-14T23:45:00Z,26.0257,-81.7332,1.06,53.5,1111122 
NERRS,ioos:station:NOAA.NERRS:rkblhwq:1,2014-02-15T00:45:00Z,26.0257,-81.7332,1.02,53.9,1111122 
NERRS,ioos:station:NOAA.NERRS:rkblhwq:1,2014-02-15T01:45:00Z,26.0257,-81.7332,1.1,53.3,1111122 
NERRS,ioos:station:NOAA.NERRS:rkblhwq:1,2014-02-15T02:45:00Z,26.0257,-81.7332,1.23,53.6,1111122 
NERRS,ioos:station:NOAA.NERRS:rkblhwq:1,2014-02-15T03:45:00Z,26.0257,-81.7332,1.39,53.8,1111122 
NERRS,ioos:station:NOAA.NERRS:rkblhwq:1,2014-02-15T04:45:00Z,26.0257,-81.7332,1.52,54.1,1111122 
NERRS,ioos:station:NOAA.NERRS:rkblhwq:1,2014-02-15T05:45:00Z,26.0257,-81.7332,1.64,54.1,1111122 
NERRS,ioos:station:NOAA.NERRS:rkblhwq:1,2014-02-15T06:45:00Z,26.0257,-81.7332,1.68,54.6,1111122 
NERRS,ioos:station:NOAA.NERRS:rkblhwq:1,2014-02-15T07:45:00Z,26.0257,-81.7332,1.61,54.1,1111122 
NERRS,ioos:station:NOAA.NERRS:rkblhwq:1,2014-02-15T08:45:00Z,26.0257,-81.7332,1.5,54.1,1111122 
NERRS,ioos:station:NOAA.NERRS:rkblhwq:1,2014-02-15T09:45:00Z,26.0257,-81.7332,1.36,54.0,1111122 
NERRS,ioos:station:NOAA.NERRS:rkblhwq:1,2014-02-15T13:45:00Z,26.0257,-81.7332,0.96,54.3,1111122 
NERRS,ioos:station:NOAA.NERRS:rkblhwq:1,2014-02-15T14:45:00Z,26.0257,-81.7332,1.09,53.7,1111122 
NERRS,ioos:station:NOAA.NERRS:rkblhwq:1,2014-02-15T15:45:00Z,26.0257,-81.7332,1.25,54.3,1111122 
NERRS,ioos:station:NOAA.NERRS:rkblhwq:1,2014-02-15T16:45:00Z,26.0257,-81.7332,1.42,54.3,1111122 
NERRS,ioos:station:NOAA.NERRS:rkblhwq:1,2014-02-15T17:45:00Z,26.0257,-81.7332,1.58,54.7,1111122 
NERRS,ioos:station:NOAA.NERRS:rkblhwq:1,2014-02-15T18:45:00Z,26.0257,-81.7332,1.67,55.0,1111122 
NERRS,ioos:station:NOAA.NERRS:rkblhwq:1,2014-02-15T19:45:00Z,26.0257,-81.7332,1.64,54.6,1111122 
NERRS,ioos:station:NOAA.NERRS:rkblhwq:1,2014-02-15T20:45:00Z,26.0257,-81.7332,1.5,54.5,1111122 
NERRS,ioos:station:NOAA.NERRS:rkblhwq:1,2014-02-15T21:45:00Z,26.0257,-81.7332,1.37,54.3,1111122 
NERRS,ioos:station:NOAA.NERRS:rkblhwq:1,2014-02-15T22:45:00Z,26.0257,-81.7332,1.25,54.3,1111122 
NERRS,ioos:station:NOAA.NERRS:rkblhwq:1,2014-02-15T23:45:00Z,26.0257,-81.7332,1.13,54.3,1111122 
NERRS,ioos:station:NOAA.NERRS:rkblhwq:1,2014-02-16T00:45:00Z,26.0257,-81.7332,1.04,54.3,1111122 
NERRS,ioos:station:NOAA.NERRS:rkblhwq:1,2014-02-16T01:45:00Z,26.0257,-81.7332,0.99,54.5,1111122 
NERRS,ioos:station:NOAA.NERRS:rkblhwq:1,2014-02-16T02:45:00Z,26.0257,-81.7332,1.07,54.1,1111122 
NERRS,ioos:station:NOAA.NERRS:rkblhwq:1,2014-02-16T03:45:00Z,26.0257,-81.7332,1.2,54.7,1111122 
NERRS,ioos:station:NOAA.NERRS:rkblhwq:1,2014-02-16T04:45:00Z,26.0257,-81.7332,1.35,54.5,1111122 
NERRS,ioos:station:NOAA.NERRS:rkblhwq:1,2014-02-16T05:45:00Z,26.0257,-81.7332,1.48,54.9,1111122 
NERRS,ioos:station:NOAA.NERRS:rkblhwq:1,2014-02-16T06:45:00Z,26.0257,-81.7332,1.56,55.2,1111122 
NERRS,ioos:station:NOAA.NERRS:rkblhwq:1,2014-02-16T07:45:00Z,26.0257,-81.7332,1.55,55.0,1111122 
NERRS,ioos:station:NOAA.NERRS:rkblhwq:1,2014-02-16T08:45:00Z,26.0257,-81.7332,1.44,54.9,1111122 
NERRS,ioos:station:NOAA.NERRS:rkblhwq:1,2014-02-16T09:45:00Z,26.0257,-81.7332,1.3,54.5,1111122 
NERRS,ioos:station:NOAA.NERRS:rkblhwq:1,2014-02-16T10:45:00Z,26.0257,-81.7332,1.16,54.3,1111122 
NERRS,ioos:station:NOAA.NERRS:rkblhwq:1,2014-02-16T11:45:00Z,26.0257,-81.7332,1.03,54.5,1111122 
NERRS,ioos:station:NOAA.NERRS:rkblhwq:1,2014-02-16T12:45:00Z,26.0257,-81.7332,0.92,54.6,1111122 
NERRS,ioos:station:NOAA.NERRS:rkblhwq:1,2014-02-16T13:45:00Z,26.0257,-81.7332,0.85,54.6,1111122 
NERRS,ioos:station:NOAA.NERRS:rkblhwq:1,2014-02-16T14:45:00Z,26.0257,-81.7332,0.91,53.6,1111122 
NERRS,ioos:station:NOAA.NERRS:rkblhwq:1,2014-02-16T15:45:00Z,26.0257,-81.7332,1.03,54.2,1111122 
NERRS,ioos:station:NOAA.NERRS:rkblhwq:1,2014-02-16T16:45:00Z,26.0257,-81.7332,1.18,54.9,1111122 
NERRS,ioos:station:NOAA.NERRS:rkblhwq:1,2014-02-16T17:45:00Z,26.0257,-81.7332,1.33,55.0,1111122 
NERRS,ioos:station:NOAA.NERRS:rkblhwq:1,2014-02-16T18:45:00Z,26.0257,-81.7332,1.48,55.0,1111122 
NERRS,ioos:station:NOAA.NERRS:rkblhwq:1,2014-02-16T19:45:00Z,26.0257,-81.7332,1.56,55.4,1111122 
NERRS,ioos:station:NOAA.NERRS:rkblhwq:1,2014-02-16T20:45:00Z,26.0257,-81.7332,1.51,55.1,1111122 
NERRS,ioos:station:NOAA.NERRS:rkblhwq:1,2014-02-16T21:45:00Z,26.0257,-81.7332,1.4,55.0,1111122 
NERRS,ioos:station:NOAA.NERRS:rkblhwq:1,2014-02-16T22:45:00Z,26.0257,-81.7332,1.28,54.9,1111122 
NERRS,ioos:station:NOAA.NERRS:rkblhwq:1,2014-02-16T23:45:00Z,26.0257,-81.7332,1.16,54.7,1111122 
NERRS,ioos:station:NOAA.NERRS:rkblhwq:1,2014-02-17T00:45:00Z,26.0257,-81.7332,1.05,54.6,1111122 
NERRS,ioos:station:NOAA.NERRS:rkblhwq:1,2014-02-17T01:45:00Z,26.0257,-81.7332,0.99,54.7,1111122 
NERRS,ioos:station:NOAA.NERRS:rkblhwq:1,2014-02-17T02:45:00Z,26.0257,-81.7332,1.04,54.1,1111122 
NERRS,ioos:station:NOAA.NERRS:rkblhwq:1,2014-02-17T03:45:00Z,26.0257,-81.7332,1.15,54.6,1111122 
NERRS,ioos:station:NOAA.NERRS:rkblhwq:1,2014-02-17T04:45:00Z,26.0257,-81.7332,1.29,55.0,1111122 
NERRS,ioos:station:NOAA.NERRS:rkblhwq:1,2014-02-17T05:45:00Z,26.0257,-81.7332,1.41,55.2,1111122 
NERRS,ioos:station:NOAA.NERRS:rkblhwq:1,2014-02-17T06:45:00Z,26.0257,-81.7332,1.52,55.3,1111122 
NERRS,ioos:station:NOAA.NERRS:rkblhwq:1,2014-02-17T07:45:00Z,26.0257,-81.7332,1.55,55.6,1111122 
NERRS,ioos:station:NOAA.NERRS:rkblhwq:1,2014-02-17T08:45:00Z,26.0257,-81.7332,1.48,55.1,1111122 
NERRS,ioos:station:NOAA.NERRS:rkblhwq:1,2014-02-17T09:45:00Z,26.0257,-81.7332,1.35,54.8,1111122 
NERRS,ioos:station:NOAA.NERRS:rkblhwq:1,2014-02-17T10:45:00Z,26.0257,-81.7332,1.22,54.7,1111122 
NERRS,ioos:station:NOAA.NERRS:rkblhwq:1,2014-02-17T11:45:00Z,26.0257,-81.7332,1.1,54.6,1111122 
NERRS,ioos:station:NOAA.NERRS:rkblhwq:1,2014-02-17T12:45:00Z,26.0257,-81.7332,0.98,54.6,1111122 
NERRS,ioos:station:NOAA.NERRS:rkblhwq:1,2014-02-17T13:45:00Z,26.0257,-81.7332,0.88,54.5,1111122 
NERRS,ioos:station:NOAA.NERRS:rkblhwq:1,2014-02-17T14:45:00Z,26.0257,-81.7332,0.86,54.0,1111122 
NERRS,ioos:station:NOAA.NERRS:rkblhwq:1,2014-02-17T15:45:00Z,26.0257,-81.7332,0.98,54.2,1111122 
NERRS,ioos:station:NOAA.NERRS:rkblhwq:1,2014-02-17T16:45:00Z,26.0257,-81.7332,1.13,54.8,1111122 
NERRS,ioos:station:NOAA.NERRS:rkblhwq:1,2014-02-17T17:45:00Z,26.0257,-81.7332,1.28,54.9,1111122 
NERRS,ioos:station:NOAA.NERRS:rkblhwq:1,2014-02-17T18:45:00Z,26.0257,-81.7332,1.44,55.1,1111122 
NERRS,ioos:station:NOAA.NERRS:rkblhwq:1,2014-02-17T19:45:00Z,26.0257,-81.7332,1.53,55.2,1111122 
NERRS,ioos:station:NOAA.NERRS:rkblhwq:1,2014-02-17T20:45:00Z,26.0257,-81.7332,1.53,55.2,1111122 
NERRS,ioos:station:NOAA.NERRS:rkblhwq:1,2014-02-17T21:45:00Z,26.0257,-81.7332,1.43,55.1,1111122 
NERRS,ioos:station:NOAA.NERRS:rkblhwq:1,2014-02-17T22:45:00Z,26.0257,-81.7332,1.31,54.9,1111122 
NERRS,ioos:station:NOAA.NERRS:rkblhwq:1,2014-02-17T23:45:00Z,26.0257,-81.7332,1.19,54.6,1111122 
NERRS,ioos:station:NOAA.NERRS:rkblhwq:1,2014-02-18T00:45:00Z,26.0257,-81.7332,1.07,54.4,1111122 
NERRS,ioos:station:NOAA.NERRS:rkblhwq:1,2014-02-18T20:45:00Z,26.0257,-81.7332,1.68,54.3,1111122 
NERRS,ioos:station:NOAA.NERRS:rkblhwq:1,2014-02-19T14:45:00Z,26.0257,-81.7332,1.03,52.7,1111122 
NERRS,ioos:station:NOAA.NERRS:rkblhwq:1,2014-02-19T15:45:00Z,26.0257,-81.7332,1.08,52.5,1111122 
NERRS,ioos:station:NOAA.NERRS:rkblhwq:1,2014-02-19T16:45:00Z,26.0257,-81.7332,1.2,52.5,1111122 
NERRS,ioos:station:NOAA.NERRS:rkblhwq:1,2014-02-19T17:45:00Z,26.0257,-81.7332,1.34,52.8,1111122 
NERRS,ioos:station:NOAA.NERRS:rkblhwq:1,2014-02-19T18:45:00Z,26.0257,-81.7332,1.48,52.8,1111122 
NERRS,ioos:station:NOAA.NERRS:rkblhwq:1,2014-02-19T19:45:00Z,26.0257,-81.7332,1.6,52.7,1111122 
NERRS,ioos:station:NOAA.NERRS:rkblhwq:1,2014-02-19T20:45:00Z,26.0257,-81.7332,1.68,52.7,1111122 
NERRS,ioos:station:NOAA.NERRS:rkblhwq:1,2014-02-19T21:45:00Z,26.0257,-81.7332,1.69,52.7,1111122 
NERRS,ioos:station:NOAA.NERRS:rkblhwq:1,2014-02-19T22:45:00Z,26.0257,-81.7332,1.59,52.5,1111122 
NERRS,ioos:station:NOAA.NERRS:rkblhwq:1,2014-02-19T23:45:00Z,26.0257,-81.7332,1.46,52.2,1111122 
NERRS,ioos:station:NOAA.NERRS:rkblhwq:1,2014-02-20T00:45:00Z,26.0257,-81.7332,1.32,52.0,1111122 
NERRS,ioos:station:NOAA.NERRS:rkblhwq:1,2014-02-20T01:45:00Z,26.0257,-81.7332,1.19,51.7,1111122 
NERRS,ioos:station:NOAA.NERRS:rkblhwq:1,2014-02-20T02:45:00Z,26.0257,-81.7332,1.07,51.6,1111122 
NERRS,ioos:station:NOAA.NERRS:rkblhwq:1,2014-02-20T03:45:00Z,26.0257,-81.7332,0.97,51.4,1111122 
NERRS,ioos:station:NOAA.NERRS:rkblhwq:1,2014-02-20T04:45:00Z,26.0257,-81.7332,0.98,51.2,1111122 
NERRS,ioos:station:NOAA.NERRS:rkblhwq:1,2014-02-20T05:45:00Z,26.0257,-81.7332,1.08,51.4,1111122 
NERRS,ioos:station:NOAA.NERRS:rkblhwq:1,2014-02-20T06:45:00Z,26.0257,-81.7332,1.2,51.5,1111122 
NERRS,ioos:station:NOAA.NERRS:rkblhwq:1,2014-02-20T07:45:00Z,26.0257,-81.7332,1.32,51.6,1111122 
NERRS,ioos:station:NOAA.NERRS:rkblhwq:1,2014-02-20T08:45:00Z,26.0257,-81.7332,1.42,51.6,1111122 
NERRS,ioos:station:NOAA.NERRS:rkblhwq:1,2014-02-20T09:45:00Z,26.0257,-81.7332,1.49,51.7,1111122 
NERRS,ioos:station:NOAA.NERRS:rkblhwq:1,2014-02-20T10:45:00Z,26.0257,-81.7332,1.47,51.5,1111122 
NERRS,ioos:station:NOAA.NERRS:rkblhwq:1,2014-02-20T11:45:00Z,26.0257,-81.7332,1.38,51.2,1111122 
NERRS,ioos:station:NOAA.NERRS:rkblhwq:1,2014-02-20T12:45:00Z,26.0257,-81.7332,1.28,51.1,1111122 
NERRS,ioos:station:NOAA.NERRS:rkblhwq:1,2014-02-20T13:45:00Z,26.0257,-81.7332,1.19,50.8,1111122 
NERRS,ioos:station:NOAA.NERRS:rkblhwq:1,2014-02-20T14:45:00Z,26.0257,-81.7332,1.11,50.9,1111122 
NERRS,ioos:station:NOAA.NERRS:rkblhwq:1,2014-02-20T15:45:00Z,26.0257,-81.7332,1.08,50.9,1111122 
NERRS,ioos:station:NOAA.NERRS:rkblhwq:1,2014-02-20T16:45:00Z,26.0257,-81.7332,1.15,50.7,1111122 
NERRS,ioos:station:NOAA.NERRS:rkblhwq:1,2014-02-20T17:45:00Z,26.0257,-81.7332,1.27,50.7,1111122 
NERRS,ioos:station:NOAA.NERRS:rkblhwq:1,2014-02-20T18:45:00Z,26.0257,-81.7332,1.4,50.8,1111122 
NERRS,ioos:station:NOAA.NERRS:rkblhwq:1,2014-02-20T19:45:00Z,26.0257,-81.7332,1.53,51.0,1111122 
NERRS,ioos:station:NOAA.NERRS:rkblhwq:1,2014-02-20T20:45:00Z,26.0257,-81.7332,1.64,50.8,1111122 
NERRS,ioos:station:NOAA.NERRS:rkblhwq:1,2014-02-20T21:45:00Z,26.0257,-81.7332,1.69,50.9,1111122 
NERRS,ioos:station:NOAA.NERRS:rkblhwq:1,2014-02-20T22:45:00Z,26.0257,-81.7332,1.64,50.6,1111122 
NERRS,ioos:station:NOAA.NERRS:rkblhwq:1,2014-02-20T23:45:00Z,26.0257,-81.7332,1.52,50.6,1111122 
NERRS,ioos:station:NOAA.NERRS:rkblhwq:1,2014-02-21T00:45:00Z,26.0257,-81.7332,1.38,50.2,1111122 
NERRS,ioos:station:NOAA.NERRS:rkblhwq:1,2014-02-21T01:45:00Z,26.0257,-81.7332,1.24,50.0,1111122 
NERRS,ioos:station:NOAA.NERRS:rkblhwq:1,2014-02-21T02:45:00Z,26.0257,-81.7332,1.1,49.9,1111122 
NERRS,ioos:station:NOAA.NERRS:rkblhwq:1,2014-02-21T03:45:00Z,26.0257,-81.7332,0.98,49.9,1111122 
NERRS,ioos:station:NOAA.NERRS:rkblhwq:1,2014-02-21T04:45:00Z,26.0257,-81.7332,0.9,49.9,1111122 
NERRS,ioos:station:NOAA.NERRS:rkblhwq:1,2014-02-21T05:45:00Z,26.0257,-81.7332,0.92,49.5,1111122 
NERRS,ioos:station:NOAA.NERRS:rkblhwq:1,2014-02-21T06:45:00Z,26.0257,-81.7332,1.0,49.6,1111122 
NERRS,ioos:station:NOAA.NERRS:rkblhwq:1,2014-02-21T07:45:00Z,26.0257,-81.7332,1.11,49.7,1111122 
NERRS,ioos:station:NOAA.NERRS:rkblhwq:1,2014-02-21T08:45:00Z,26.0257,-81.7332,1.24,50.0,1111122 
NERRS,ioos:station:NOAA.NERRS:rkblhwq:1,2014-02-21T09:45:00Z,26.0257,-81.7332,1.38,49.9,1111122 
NERRS,ioos:station:NOAA.NERRS:rkblhwq:1,2014-02-21T10:45:00Z,26.0257,-81.7332,1.48,49.8,1111122 
NERRS,ioos:station:NOAA.NERRS:rkblhwq:1,2014-02-21T11:45:00Z,26.0257,-81.7332,1.5,49.8,1111122 
NERRS,ioos:station:NOAA.NERRS:rkblhwq:1,2014-02-21T12:45:00Z,26.0257,-81.7332,1.41,49.5,1111122 
NERRS,ioos:station:NOAA.NERRS:rkblhwq:1,2014-02-21T13:45:00Z,26.0257,-81.7332,1.32,49.3,1111122 
NERRS,ioos:station:NOAA.NERRS:rkblhwq:1,2014-02-21T14:45:00Z,26.0257,-81.7332,1.23,49.2,1111122 
NERRS,ioos:station:NOAA.NERRS:rkblhwq:1,2014-02-21T15:45:00Z,26.0257,-81.7332,1.2,49.3,1111122 
NERRS,ioos:station:NOAA.NERRS:rkblhwq:1,2014-02-21T16:45:00Z,26.0257,-81.7332,1.26,49.2,1111122 
NERRS,ioos:station:NOAA.NERRS:rkblhwq:1,2014-02-21T17:45:00Z,26.0257,-81.7332,1.31,49.3,1111122 
NERRS,ioos:station:NOAA.NERRS:rkblhwq:1,2014-02-21T18:45:00Z,26.0257,-81.7332,1.39,49.1,1111122 
NERRS,ioos:station:NOAA.NERRS:rkblhwq:1,2014-02-21T19:45:00Z,26.0257,-81.7332,1.5,49.2,1111122 
NERRS,ioos:station:NOAA.NERRS:rkblhwq:1,2014-02-21T20:45:00Z,26.0257,-81.7332,1.61,49.2,1111122 
NERRS,ioos:station:NOAA.NERRS:rkblhwq:1,2014-02-21T21:45:00Z,26.0257,-81.7332,1.66,49.2,1111122 
NERRS,ioos:station:NOAA.NERRS:rkblhwq:1,2014-02-21T22:45:00Z,26.0257,-81.7332,1.65,49.1,1111122 
NERRS,ioos:station:NOAA.NERRS:rkblhwq:1,2014-02-21T23:45:00Z,26.0257,-81.7332,1.56,48.9,1111122 
NERRS,ioos:station:NOAA.NERRS:rkblhwq:1,2014-02-22T00:45:00Z,26.0257,-81.7332,1.45,48.7,1111122 
NERRS,ioos:station:NOAA.NERRS:rkblhwq:1,2014-02-22T01:45:00Z,26.0257,-81.7332,1.32,48.4,1111122 
NERRS,ioos:station:NOAA.NERRS:rkblhwq:1,2014-02-22T02:45:00Z,26.0257,-81.7332,1.2,48.2,1111122 
NERRS,ioos:station:NOAA.NERRS:rkblhwq:1,2014-02-22T03:45:00Z,26.0257,-81.7332,1.07,48.3,1111122 
NERRS,ioos:station:NOAA.NERRS:rkblhwq:1,2014-02-22T04:45:00Z,26.0257,-81.7332,0.97,48.0,1111122 
NERRS,ioos:station:NOAA.NERRS:rkblhwq:1,2014-02-22T05:45:00Z,26.0257,-81.7332,0.9,48.2,1111122 
NERRS,ioos:station:NOAA.NERRS:rkblhwq:1,2014-02-22T06:45:00Z,26.0257,-81.7332,0.89,48.0,1111122 
NERRS,ioos:station:NOAA.NERRS:rkblhwq:1,2014-02-22T07:45:00Z,26.0257,-81.7332,0.95,47.8,1111122 
NERRS,ioos:station:NOAA.NERRS:rkblhwq:1,2014-02-22T08:45:00Z,26.0257,-81.7332,1.05,47.9,1111122 
NERRS,ioos:station:NOAA.NERRS:rkblhwq:1,2014-02-22T09:45:00Z,26.0257,-81.7332,1.17,47.9,1111122 
NERRS,ioos:station:NOAA.NERRS:rkblhwq:1,2014-02-22T10:45:00Z,26.0257,-81.7332,1.3,48.1,1111122 
NERRS,ioos:station:NOAA.NERRS:rkblhwq:1,2014-02-22T11:45:00Z,26.0257,-81.7332,1.38,48.0,1111122 
NERRS,ioos:station:NOAA.NERRS:rkblhwq:1,2014-02-22T12:45:00Z,26.0257,-81.7332,1.41,48.1,1111122 
NERRS,ioos:station:NOAA.NERRS:rkblhwq:1,2014-02-22T13:45:00Z,26.0257,-81.7332,1.35,47.7,1111122 
NERRS,ioos:station:NOAA.NERRS:rkblhwq:1,2014-02-22T14:45:00Z,26.0257,-81.7332,1.29,47.6,1111122 
NERRS,ioos:station:NOAA.NERRS:rkblhwq:1,2014-02-22T15:45:00Z,26.0257,-81.7332,1.24,47.4,1111122 
NERRS,ioos:station:NOAA.NERRS:rkblhwq:1,2014-02-22T16:45:00Z,26.0257,-81.7332,1.21,47.6,1111122 
NERRS,ioos:station:NOAA.NERRS:rkblhwq:1,2014-02-22T17:45:00Z,26.0257,-81.7332,1.22,47.3,1111122 
NERRS,ioos:station:NOAA.NERRS:rkblhwq:1,2014-02-22T18:45:00Z,26.0257,-81.7332,1.28,47.4,1111122 
NERRS,ioos:station:NOAA.NERRS:rkblhwq:1,2014-02-22T19:45:00Z,26.0257,-81.7332,1.37,47.2,1111122 
NERRS,ioos:station:NOAA.NERRS:rkblhwq:1,2014-02-22T20:45:00Z,26.0257,-81.7332,1.47,47.2,1111122 
NERRS,ioos:station:NOAA.NERRS:rkblhwq:1,2014-02-22T21:45:00Z,26.0257,-81.7332,1.56,47.1,1111122 
NERRS,ioos:station:NOAA.NERRS:rkblhwq:1,2014-02-22T22:45:00Z,26.0257,-81.7332,1.62,47.2,1111122 
NERRS,ioos:station:NOAA.NERRS:rkblhwq:1,2014-02-22T23:45:00Z,26.0257,-81.7332,1.62,47.1,1111122 
NERRS,ioos:station:NOAA.NERRS:rkblhwq:1,2014-02-23T00:45:00Z,26.0257,-81.7332,1.54,46.9,1111122 
NERRS,ioos:station:NOAA.NERRS:rkblhwq:1,2014-02-23T01:45:00Z,26.0257,-81.7332,1.44,46.6,1111122 
NERRS,ioos:station:NOAA.NERRS:rkblhwq:1,2014-02-23T02:45:00Z,26.0257,-81.7332,1.32,46.4,1111122 
NERRS,ioos:station:NOAA.NERRS:rkblhwq:1,2014-02-23T03:45:00Z,26.0257,-81.7332,1.2,46.2,1111122 
NERRS,ioos:station:NOAA.NERRS:rkblhwq:1,2014-02-23T04:45:00Z,26.0257,-81.7332,1.07,46.2,1111122 
NERRS,ioos:station:NOAA.NERRS:rkblhwq:1,2014-02-23T05:45:00Z,26.0257,-81.7332,0.95,46.0,1111122 